Location: Dal�� Lhota
(48.7500°N, 14.0167°E)
Time: 00:59:49
(UTC+00:00)

Cosmos 1733 - Pass Details

Date: 24 September 2020
Orbit: 504 x 522 km, 82.5° (Epoch: 29 October)

Event Time Altitude Azimuth Distance (km) Brightness Sun altitude
Exits shadow 19:13:29 16° 206° (SSW) 1,404 5.4 -22.6°
Maximum altitude 19:16:23 56° 282° (WNW) 620 3.8 -23.0°
Drops below altitude 10° 19:20:11 10° 2° (N) 1,753 6.2 -23.6°
Sets 19:22:21 0° 7° (N) 2,641 7.1 -23.9°
